Valparaiso, IN

5:44 AM CDT on April 27, 2017 (GMT -0500)
Porter County Municipal

Weather History for KVPZ - October, 2012

Change the Weather History Date:

Wednesday, October 3, 2012

  Actual Average Record
Temperature  
Mean Temperature 59 °F 57 °F  
Max Temperature 61 °F 68 °F 85 °F (2005)
Min Temperature 57 °F 46 °F 32 °F (2003)
Degree Days  
Heating Degree Days 6 9  
Month to date heating degree days 18 27  
Since 1 July heating degree days 153 157  
Cooling Degree Days 0 1  
Month to date cooling degree days 0 3  
Year to date cooling degree days 1049 705  
Growing Degree Days 8 (Base 50)    
Moisture  
Dew Point 57 °F    
Average Humidity 92    
Maximum Humidity 100    
Minimum Humidity 82    
Precipitation  
Precipitation 0.05 in 0.10 in 1.02 in (1999)
Month to date precipitation 0.05 0.29  
Year to date precipitation 20.73 29.04  
Sea Level Pressure  
Sea Level Pressure 29.97 in    
Wind  
Wind Speed 6 mph (South)    
Max Wind Speed 13 mph    
Max Gust Speed 18 mph    
Visibility 5 miles    
Events Rain    
T = Trace of Precipitation, MM = Missing Value Source: NWS Daily Summary

Daily Weather History Graph

Daily Weather History Graph

Search for Another Location

Airport or City:

Trip Planner

Search our weather history database for the weather conditions in past years. The results will help you decide how hot, cold, wet, or windy it might be!

Date:

Astronomy

Oct. 03, 2012 Rise Set
Actual Time 6:47 AM CDT 6:25 PM CDT
Civil Twilight 6:19 AM CDT 6:53 PM CDT
Nautical Twilight 5:47 AM CDT 7:25 PM CDT
Astronomical Twilight 5:15 AM CDT 7:57 PM CDT
Moon 8:14 PM CDT (10/3) 10:13 AM CDT (10/3)
Length of Visible Light 12h 33m
Length of Day
11h 38m
Waning Gibbous, 88% of the Moon is Illuminated
Oct 3
Waning Gibbous
Oct 8
Last Quarter
Oct 15
New
Oct 21
First Quarter
Oct 29
Full

Hourly Weather History & Observations

Time (CDT) Temp. Dew Point Humidity Pressure Visibility Wind Dir Wind Speed Gust Speed Precip Events Conditions
12:18 AM 60.8 °F 55.4 °F 82% 29.90 in 7.0 mi East 6.9 mph - N/A   Overcast
12:53 AM 59.0 °F 57.0 °F 93% 29.89 in 6.0 mi ENE 5.8 mph - 0.00 in   Overcast
1:53 AM 59.0 °F 57.0 °F 93% 29.89 in 5.0 mi ENE 3.5 mph - N/A   Overcast
2:53 AM 59.0 °F 57.0 °F 93% 29.89 in 5.0 mi East 3.5 mph - N/A   Overcast
3:53 AM 60.1 °F 57.9 °F 93% 29.90 in 4.0 mi East 3.5 mph - N/A   Overcast
4:36 AM 60.8 °F 57.2 °F 88% 29.91 in 2.0 mi SE 4.6 mph - 0.01 in   Overcast
4:53 AM 59.0 °F 57.9 °F 96% 29.91 in 2.0 mi SSE 8.1 mph - 0.02 in   Overcast
5:27 AM 59.0 °F 57.2 °F 94% 29.93 in 3.0 mi South 4.6 mph - N/A   Overcast
5:53 AM 57.9 °F 57.0 °F 97% 29.93 in 4.0 mi South 5.8 mph - N/A   Overcast
6:00 AM 57.2 °F 57.2 °F 100% 29.94 in 4.0 mi South 4.6 mph - N/A   Overcast
6:53 AM 57.9 °F 55.0 °F 90% 29.95 in 6.0 mi South 5.8 mph - N/A   Overcast
7:22 AM 57.2 °F 55.4 °F 94% 29.95 in 5.0 mi South 4.6 mph - N/A   Overcast
7:53 AM 57.9 °F 55.9 °F 93% 29.96 in 4.0 mi South 8.1 mph - N/A   Overcast
8:16 AM 57.2 °F 55.4 °F 94% 29.96 in 4.0 mi South 5.8 mph - N/A   Overcast
8:53 AM 57.9 °F 55.9 °F 93% 29.97 in 4.0 mi South 8.1 mph - N/A   Overcast
9:53 AM 57.9 °F 55.9 °F 93% 29.97 in 6.0 mi South 9.2 mph - N/A   Overcast
10:17 AM 57.2 °F 55.4 °F 94% 29.98 in 1.8 mi South 8.1 mph - N/A   Overcast
10:53 AM 59.0 °F 55.9 °F 90% 29.97 in 10.0 mi South 9.2 mph - N/A   Overcast
11:53 AM 59.0 °F 57.0 °F 93% 29.98 in 9.0 mi South 8.1 mph - N/A   Overcast
12:44 PM 60.8 °F 57.2 °F 88% 29.97 in 10.0 mi South 6.9 mph - N/A   Overcast
12:53 PM 60.1 °F 57.0 °F 90% 29.96 in 10.0 mi South 6.9 mph - N/A   Overcast
1:32 PM 60.8 °F 57.2 °F 88% 29.96 in 9.0 mi South 8.1 mph - N/A   Overcast
1:53 PM 60.1 °F 57.0 °F 90% 29.96 in 8.0 mi South 8.1 mph - N/A   Overcast
2:53 PM 60.1 °F 59.0 °F 96% 29.96 in 5.0 mi South 5.8 mph - N/A   Overcast
3:10 PM 60.8 °F 57.2 °F 88% 29.97 in 2.0 mi SSW 10.4 mph - 0.02 in Rain Light Rain
3:20 PM 59.0 °F 57.2 °F 94% 29.97 in 5.0 mi SSW 10.4 mph - 0.03 in   Overcast
3:37 PM 60.8 °F 57.2 °F 88% 29.97 in 10.0 mi SW 11.5 mph - 0.03 in   Overcast
3:53 PM 59.0 °F 57.0 °F 93% 29.97 in 10.0 mi SSW 11.5 mph - 0.03 in   Overcast
4:03 PM 60.8 °F 57.2 °F 88% 29.98 in 5.0 mi SSW 8.1 mph - N/A   Overcast
5:40 PM 59.0 °F 57.2 °F 94% 30.00 in 2.5 mi SSW 6.9 mph - 0.00 in   Overcast
5:44 PM 59.0 °F 57.2 °F 94% 30.00 in 3.0 mi SSW 5.8 mph - 0.00 in   Overcast
5:53 PM 59.0 °F 57.9 °F 96% 30.00 in 3.0 mi SSW 5.8 mph - 0.00 in   Overcast
6:53 PM 59.0 °F 57.0 °F 93% 30.01 in 4.0 mi South 4.6 mph - N/A   Overcast
7:53 PM 59.0 °F 57.0 °F 93% 30.03 in 5.0 mi SSE 3.5 mph - N/A   Overcast
8:53 PM 59.0 °F 57.0 °F 93% 30.04 in 4.0 mi South 5.8 mph - N/A   Overcast
9:53 PM 57.9 °F 55.9 °F 93% 30.05 in 4.0 mi South 3.5 mph - N/A   Overcast
10:53 PM 57.9 °F 55.9 °F 93% 30.06 in 4.0 mi Calm Calm - N/A   Overcast
11:53 PM 57.9 °F 55.9 °F 93% 30.05 in 4.0 mi Calm Calm - N/A   Overcast